Location: Little Chesterford
(52.0500°N, 0.1833°E)
Time: 12:42:38
(UTC+00:00)

Okean 2 - Pass Details

Date: 26 September 2023
Orbit: 547 x 560 km, 82.5° (Epoch: 28 November)

Event Time Altitude Azimuth Distance (km) Brightness Sun altitude
Rises 18:59:58 0° 352° (N) 2,738 7.2 -11.7°
Reaches altitude 10° 19:02:11 10° 356° (N) 1,837 6.2 -12.0°
Maximum altitude 19:06:10 57° 76° (ENE) 650 3.4 -12.6°
Drops below altitude 10° 19:10:07 10° 156° (SSE) 1,818 5.6 -13.2°
Enters shadow 19:10:28 - 157° (SSE) 1,963 5.8 -13.2°
